Year,Month,Day,Hour,Minute,Value (Times are PST for temperature in C)
2021,06,26,00,00,18.90
2021,06,26,00,01,18.90
2021,06,26,00,02,18.90
2021,06,26,00,03,18.90
2021,06,26,00,04,18.90
2021,06,26,00,05,18.90
2021,06,26,00,06,18.90
2021,06,26,00,07,18.90
2021,06,26,00,08,18.90
2021,06,26,00,09,18.90
2021,06,26,00,10,18.90
2021,06,26,00,11,18.90
2021,06,26,00,12,18.90
2021,06,26,00,13,18.90
2021,06,26,00,14,18.90
2021,06,26,00,15,18.90
2021,06,26,00,16,19.00
2021,06,26,00,17,19.00
2021,06,26,00,18,19.00
2021,06,26,00,19,19.00
2021,06,26,00,20,19.00
2021,06,26,00,21,19.00
2021,06,26,00,22,19.00
2021,06,26,00,23,19.00
2021,06,26,00,24,18.90
2021,06,26,00,25,18.90
2021,06,26,00,26,18.90
2021,06,26,00,27,18.90
2021,06,26,00,28,18.90
2021,06,26,00,29,18.80
2021,06,26,00,30,18.80
2021,06,26,00,31,18.80
2021,06,26,00,32,18.80
2021,06,26,00,33,18.80
2021,06,26,00,34,18.80
2021,06,26,00,35,18.80
2021,06,26,00,36,18.80
2021,06,26,00,37,18.80
2021,06,26,00,38,18.80
2021,06,26,00,39,18.80
2021,06,26,00,40,18.80
2021,06,26,00,41,18.80
2021,06,26,00,42,18.80
2021,06,26,00,43,18.80
2021,06,26,00,44,18.80
2021,06,26,00,45,18.70
2021,06,26,00,46,18.70
2021,06,26,00,47,18.70
2021,06,26,00,48,18.70
2021,06,26,00,49,18.70
2021,06,26,00,50,18.70
2021,06,26,00,51,18.70
2021,06,26,00,52,18.70
2021,06,26,00,53,18.70
2021,06,26,00,54,18.70
2021,06,26,00,55,18.70
2021,06,26,00,56,18.70
2021,06,26,00,57,18.70
2021,06,26,00,58,18.70
2021,06,26,00,59,18.70
2021,06,26,01,00,18.70
2021,06,26,01,01,18.60
2021,06,26,01,02,18.60
2021,06,26,01,03,18.60
2021,06,26,01,04,18.60
2021,06,26,01,05,18.60
2021,06,26,01,06,18.50
2021,06,26,01,07,18.50
2021,06,26,01,08,18.50
2021,06,26,01,09,18.50
2021,06,26,01,10,18.50
2021,06,26,01,11,18.50
2021,06,26,01,12,18.40
2021,06,26,01,13,18.40
2021,06,26,01,14,18.40
2021,06,26,01,15,18.40
2021,06,26,01,16,18.40
2021,06,26,01,17,18.40
2021,06,26,01,18,18.50
2021,06,26,01,19,18.50
2021,06,26,01,20,18.50
2021,06,26,01,21,18.50
2021,06,26,01,22,18.50
2021,06,26,01,23,18.50
2021,06,26,01,24,18.40
2021,06,26,01,25,18.40
2021,06,26,01,26,18.40
2021,06,26,01,27,18.40
2021,06,26,01,28,18.40
2021,06,26,01,29,18.40
2021,06,26,01,30,18.30
2021,06,26,01,31,18.30
2021,06,26,01,32,18.30
2021,06,26,01,33,18.30
2021,06,26,01,34,18.30
2021,06,26,01,35,18.30
2021,06,26,01,36,18.30
2021,06,26,01,37,18.30
2021,06,26,01,38,18.20
2021,06,26,01,39,18.20
2021,06,26,01,40,18.20
2021,06,26,01,41,18.20
2021,06,26,01,42,18.20
2021,06,26,01,43,18.30
2021,06,26,01,44,18.30
2021,06,26,01,45,18.30
2021,06,26,01,46,18.30
2021,06,26,01,47,18.30
2021,06,26,01,48,18.20
2021,06,26,01,49,18.20
2021,06,26,01,50,18.20
2021,06,26,01,51,18.20
2021,06,26,01,52,18.20
2021,06,26,01,53,18.20
2021,06,26,01,54,18.20
2021,06,26,01,55,18.20
2021,06,26,01,56,18.20
2021,06,26,01,57,18.20
2021,06,26,01,58,18.20
2021,06,26,01,59,18.30
2021,06,26,02,00,18.30
2021,06,26,02,01,18.30
2021,06,26,02,02,18.30
2021,06,26,02,03,18.40
2021,06,26,02,04,18.40
2021,06,26,02,05,18.40
2021,06,26,02,06,18.50
2021,06,26,02,07,18.60
2021,06,26,02,08,18.60
2021,06,26,02,09,18.60
2021,06,26,02,10,18.60
2021,06,26,02,11,18.50
2021,06,26,02,12,18.50
2021,06,26,02,13,18.50
2021,06,26,02,14,18.40
2021,06,26,02,15,18.40
2021,06,26,02,16,18.40
2021,06,26,02,17,18.30
2021,06,26,02,18,18.30
2021,06,26,02,19,18.30
2021,06,26,02,20,18.30
2021,06,26,02,21,18.30
2021,06,26,02,22,18.30
2021,06,26,02,23,18.40
2021,06,26,02,24,18.40
2021,06,26,02,25,18.40
2021,06,26,02,26,18.40
2021,06,26,02,27,18.40
2021,06,26,02,28,18.40
2021,06,26,02,29,18.40
2021,06,26,02,30,18.40
2021,06,26,02,31,18.40
2021,06,26,02,32,18.40
2021,06,26,02,33,18.40
2021,06,26,02,34,18.40
2021,06,26,02,35,18.40
2021,06,26,02,36,18.40
2021,06,26,02,37,18.40
2021,06,26,02,38,18.40
2021,06,26,02,39,18.40
2021,06,26,02,40,18.40
2021,06,26,02,41,18.40
2021,06,26,02,42,18.40
2021,06,26,02,43,18.40
2021,06,26,02,44,18.50
2021,06,26,02,45,18.50
2021,06,26,02,46,18.50
2021,06,26,02,47,18.50
2021,06,26,02,48,18.50
2021,06,26,02,49,18.60
2021,06,26,02,50,18.60
2021,06,26,02,51,18.60
2021,06,26,02,52,18.60
2021,06,26,02,53,18.70
2021,06,26,02,54,18.70
2021,06,26,02,55,18.70
2021,06,26,02,56,18.80
2021,06,26,02,57,18.80
2021,06,26,02,58,18.80
2021,06,26,02,59,18.80
2021,06,26,03,00,18.80
2021,06,26,03,01,18.80
2021,06,26,03,02,18.80
2021,06,26,03,03,18.80
2021,06,26,03,04,18.80
2021,06,26,03,05,18.80
2021,06,26,03,06,18.80
2021,06,26,03,07,18.80
2021,06,26,03,08,18.80
2021,06,26,03,09,18.80
2021,06,26,03,10,18.70
2021,06,26,03,11,18.70
2021,06,26,03,12,18.80
2021,06,26,03,13,18.80
2021,06,26,03,14,18.80
2021,06,26,03,15,18.80
2021,06,26,03,16,18.80
2021,06,26,03,17,18.80
2021,06,26,03,18,18.80
2021,06,26,03,19,18.80
2021,06,26,03,20,18.80
2021,06,26,03,21,18.80
2021,06,26,03,22,18.80
2021,06,26,03,23,18.80
2021,06,26,03,24,18.80
2021,06,26,03,25,18.70
2021,06,26,03,26,18.70
2021,06,26,03,27,18.70
2021,06,26,03,28,18.70
2021,06,26,03,29,18.70
2021,06,26,03,30,18.70
2021,06,26,03,31,18.70
2021,06,26,03,32,18.60
2021,06,26,03,33,18.60
2021,06,26,03,34,18.60
2021,06,26,03,35,18.60
2021,06,26,03,36,18.60
2021,06,26,03,37,18.60
2021,06,26,03,38,18.60
2021,06,26,03,39,18.60
2021,06,26,03,40,18.60
2021,06,26,03,41,18.60
2021,06,26,03,42,18.60
2021,06,26,03,43,18.70
2021,06,26,03,44,18.70
2021,06,26,03,45,18.70
2021,06,26,03,46,18.70
2021,06,26,03,47,18.70
2021,06,26,03,48,18.70
2021,06,26,03,49,18.70
2021,06,26,03,50,18.70
2021,06,26,03,51,18.60
2021,06,26,03,52,18.60
2021,06,26,03,53,18.60
2021,06,26,03,54,18.60
2021,06,26,03,55,18.60
2021,06,26,03,56,18.60
2021,06,26,03,57,18.60
2021,06,26,03,58,18.60
2021,06,26,03,59,18.50
2021,06,26,04,00,18.50
2021,06,26,04,01,18.50
2021,06,26,04,02,18.40
2021,06,26,04,03,18.40
2021,06,26,04,04,18.40
2021,06,26,04,05,18.40
2021,06,26,04,06,18.30
2021,06,26,04,07,18.30
2021,06,26,04,08,18.30
2021,06,26,04,09,18.30
2021,06,26,04,10,18.30
2021,06,26,04,11,18.30
2021,06,26,04,12,18.30
2021,06,26,04,13,18.30
2021,06,26,04,14,18.20
2021,06,26,04,15,18.20
2021,06,26,04,16,18.20
2021,06,26,04,17,18.20
2021,06,26,04,18,18.20
2021,06,26,04,19,18.20
2021,06,26,04,20,18.20
2021,06,26,04,21,18.20
2021,06,26,04,22,18.10
2021,06,26,04,23,18.10
2021,06,26,04,24,18.10
2021,06,26,04,25,18.10
2021,06,26,04,26,18.10
2021,06,26,04,27,18.10
2021,06,26,04,28,18.10
2021,06,26,04,29,18.10
2021,06,26,04,30,18.10
2021,06,26,04,31,18.10
2021,06,26,04,32,18.10
2021,06,26,04,33,18.10
2021,06,26,04,34,18.00
2021,06,26,04,35,18.00
2021,06,26,04,36,18.00
2021,06,26,04,37,17.90
2021,06,26,04,38,17.90
2021,06,26,04,39,17.90
2021,06,26,04,40,17.80
2021,06,26,04,41,17.80
2021,06,26,04,42,17.80
2021,06,26,04,43,17.80
2021,06,26,04,44,17.80
2021,06,26,04,45,17.80
2021,06,26,04,46,17.80
2021,06,26,04,47,17.80
2021,06,26,04,48,17.80
2021,06,26,04,49,17.80
2021,06,26,04,50,17.80
2021,06,26,04,51,17.80
2021,06,26,04,52,17.80
2021,06,26,04,53,17.80
2021,06,26,04,54,17.80
2021,06,26,04,55,17.80
2021,06,26,04,56,17.80
2021,06,26,04,57,17.80
2021,06,26,04,58,17.80
2021,06,26,04,59,17.80
2021,06,26,05,00,17.80
2021,06,26,05,01,17.80
2021,06,26,05,02,17.90
2021,06,26,05,03,18.00
2021,06,26,05,04,18.20
2021,06,26,05,05,18.30
2021,06,26,05,06,18.40
2021,06,26,05,07,18.50
2021,06,26,05,08,18.60
2021,06,26,05,09,18.60
2021,06,26,05,10,18.60
2021,06,26,05,11,18.60
2021,06,26,05,12,18.50
2021,06,26,05,13,18.50
2021,06,26,05,14,18.50
2021,06,26,05,15,18.50
2021,06,26,05,16,18.40
2021,06,26,05,17,18.40
2021,06,26,05,18,18.40
2021,06,26,05,19,18.40
2021,06,26,05,20,18.40
2021,06,26,05,21,18.40
2021,06,26,05,22,18.30
2021,06,26,05,23,18.30
2021,06,26,05,24,18.30
2021,06,26,05,25,18.20
2021,06,26,05,26,18.20
2021,06,26,05,27,18.20
2021,06,26,05,28,18.20
2021,06,26,05,29,18.10
2021,06,26,05,30,18.10
2021,06,26,05,31,18.10
2021,06,26,05,32,18.10
2021,06,26,05,33,18.10
2021,06,26,05,34,18.10
2021,06,26,05,35,18.10
2021,06,26,05,36,18.10
2021,06,26,05,37,18.10
2021,06,26,05,38,18.10
2021,06,26,05,39,18.10
2021,06,26,05,40,18.10
2021,06,26,05,41,18.10
2021,06,26,05,42,18.10
2021,06,26,05,43,18.10
2021,06,26,05,44,18.10
2021,06,26,05,45,18.10
2021,06,26,05,46,18.20
2021,06,26,05,47,18.20
2021,06,26,05,48,18.20
2021,06,26,05,49,18.20
2021,06,26,05,50,18.20
2021,06,26,05,51,18.20
2021,06,26,05,52,18.20
2021,06,26,05,53,18.20
2021,06,26,05,54,18.20
2021,06,26,05,55,18.10
2021,06,26,05,56,18.10
2021,06,26,05,57,18.10
2021,06,26,05,58,18.10
2021,06,26,05,59,18.20
2021,06,26,06,00,18.20
2021,06,26,06,01,18.20
2021,06,26,06,02,18.20
2021,06,26,06,03,18.20
2021,06,26,06,04,18.20
2021,06,26,06,05,18.20
2021,06,26,06,06,18.20
2021,06,26,06,07,18.20
2021,06,26,06,08,18.30
2021,06,26,06,09,18.30
2021,06,26,06,10,18.30
2021,06,26,06,11,18.30
2021,06,26,06,12,18.30
2021,06,26,06,13,18.40
2021,06,26,06,14,18.40
2021,06,26,06,15,18.50
2021,06,26,06,16,18.50
2021,06,26,06,17,18.60
2021,06,26,06,18,18.60
2021,06,26,06,19,18.70
2021,06,26,06,20,18.70
2021,06,26,06,21,18.70
2021,06,26,06,22,18.70
2021,06,26,06,23,18.70
2021,06,26,06,24,18.70
2021,06,26,06,25,18.70
2021,06,26,06,26,18.70
2021,06,26,06,27,18.70
2021,06,26,06,28,18.80
2021,06,26,06,29,18.80
2021,06,26,06,30,18.80
2021,06,26,06,31,18.80
2021,06,26,06,32,18.80
2021,06,26,06,33,18.80
2021,06,26,06,34,18.80
2021,06,26,06,35,18.80
2021,06,26,06,36,18.80
2021,06,26,06,37,18.80
2021,06,26,06,38,18.80
2021,06,26,06,39,18.90
2021,06,26,06,40,18.90
2021,06,26,06,41,19.00
2021,06,26,06,42,19.00
2021,06,26,06,43,19.00
2021,06,26,06,44,19.10
2021,06,26,06,45,19.20
2021,06,26,06,46,19.30
2021,06,26,06,47,19.30
2021,06,26,06,48,19.40
2021,06,26,06,49,19.50
2021,06,26,06,50,19.50
2021,06,26,06,51,19.50
2021,06,26,06,52,19.60
2021,06,26,06,53,19.60
2021,06,26,06,54,19.70
2021,06,26,06,55,19.80
2021,06,26,06,56,19.90
2021,06,26,06,57,20.00
2021,06,26,06,58,20.10
2021,06,26,06,59,20.20
2021,06,26,07,00,20.20
2021,06,26,07,01,20.30
2021,06,26,07,02,20.30
2021,06,26,07,03,20.40
2021,06,26,07,04,20.40
2021,06,26,07,05,20.40
2021,06,26,07,06,20.50
2021,06,26,07,07,20.60
2021,06,26,07,08,20.60
2021,06,26,07,09,20.60
2021,06,26,07,10,20.70
2021,06,26,07,11,20.70
2021,06,26,07,12,20.80
2021,06,26,07,13,20.80
2021,06,26,07,14,20.90
2021,06,26,07,15,20.90
2021,06,26,07,16,20.90
2021,06,26,07,17,21.00
2021,06,26,07,18,21.00
2021,06,26,07,19,21.10
2021,06,26,07,20,21.10
2021,06,26,07,21,21.10
2021,06,26,07,22,21.10
2021,06,26,07,23,21.20
2021,06,26,07,24,21.20
2021,06,26,07,25,21.20
2021,06,26,07,26,21.30
2021,06,26,07,27,21.30
2021,06,26,07,28,21.30
2021,06,26,07,29,21.40
2021,06,26,07,30,21.40
2021,06,26,07,31,21.50
2021,06,26,07,32,21.60
2021,06,26,07,33,21.60
2021,06,26,07,34,21.70
2021,06,26,07,35,21.70
2021,06,26,07,36,21.80
2021,06,26,07,37,21.80
2021,06,26,07,38,21.90
2021,06,26,07,39,21.90
2021,06,26,07,40,22.00
2021,06,26,07,41,22.00
2021,06,26,07,42,22.10
2021,06,26,07,43,22.20
2021,06,26,07,44,22.20
2021,06,26,07,45,22.30
2021,06,26,07,46,22.40
2021,06,26,07,47,22.40
2021,06,26,07,48,22.50
2021,06,26,07,49,22.50
2021,06,26,07,50,22.60
2021,06,26,07,51,22.60
2021,06,26,07,52,22.60
2021,06,26,07,53,22.70
2021,06,26,07,54,22.70
2021,06,26,07,55,22.70
2021,06,26,07,56,22.80
2021,06,26,07,57,22.80
2021,06,26,07,58,22.90
2021,06,26,07,59,22.90
2021,06,26,08,00,23.00
2021,06,26,08,01,23.10
2021,06,26,08,02,23.20
2021,06,26,08,03,23.30
2021,06,26,08,04,23.30
2021,06,26,08,05,23.40
2021,06,26,08,06,23.50
2021,06,26,08,07,23.60
2021,06,26,08,08,23.70
2021,06,26,08,09,23.80
2021,06,26,08,10,23.90
2021,06,26,08,11,24.00
2021,06,26,08,12,24.10
2021,06,26,08,13,24.20
2021,06,26,08,14,24.30
2021,06,26,08,15,24.40
2021,06,26,08,16,24.50
2021,06,26,08,17,24.60
2021,06,26,08,18,24.70
2021,06,26,08,19,24.80
2021,06,26,08,20,24.80
2021,06,26,08,21,24.90
2021,06,26,08,22,24.90
2021,06,26,08,23,24.90
2021,06,26,08,24,24.90
2021,06,26,08,25,25.00
2021,06,26,08,26,25.00
2021,06,26,08,27,25.10
2021,06,26,08,28,25.10
2021,06,26,08,29,25.10
2021,06,26,08,30,25.20
2021,06,26,08,31,25.20
2021,06,26,08,32,25.30
2021,06,26,08,33,25.40
2021,06,26,08,34,25.60
2021,06,26,08,35,25.70
2021,06,26,08,36,25.80
2021,06,26,08,37,25.90
2021,06,26,08,38,26.10
2021,06,26,08,39,26.20
2021,06,26,08,40,26.30
2021,06,26,08,41,26.40
2021,06,26,08,42,26.50
2021,06,26,08,43,26.70
2021,06,26,08,44,26.80
2021,06,26,08,45,26.90
2021,06,26,08,46,26.90
2021,06,26,08,47,26.90
2021,06,26,08,48,27.00
2021,06,26,08,49,27.00
2021,06,26,08,50,27.00
2021,06,26,08,51,27.00
2021,06,26,08,52,27.10
2021,06,26,08,53,27.10
2021,06,26,08,54,27.20
2021,06,26,08,55,27.20
2021,06,26,08,56,27.20
2021,06,26,08,57,27.20
2021,06,26,08,58,27.30
2021,06,26,08,59,27.30
2021,06,26,09,00,27.40
2021,06,26,09,01,27.60
2021,06,26,09,02,27.70
2021,06,26,09,03,27.90
2021,06,26,09,04,28.00
2021,06,26,09,05,28.20
2021,06,26,09,06,28.30
2021,06,26,09,07,28.40
2021,06,26,09,08,28.40
2021,06,26,09,09,28.50
2021,06,26,09,10,28.60
2021,06,26,09,11,28.60
2021,06,26,09,12,28.70
2021,06,26,09,13,28.70
2021,06,26,09,14,28.80
2021,06,26,09,15,28.80
2021,06,26,09,16,28.80
2021,06,26,09,17,28.80
2021,06,26,09,18,28.80
2021,06,26,09,19,28.80
2021,06,26,09,20,28.90
2021,06,26,09,21,28.90
2021,06,26,09,22,28.90
2021,06,26,09,23,28.90
2021,06,26,09,24,28.90
2021,06,26,09,25,28.90
2021,06,26,09,26,28.90
2021,06,26,09,27,28.90
2021,06,26,09,28,28.90
2021,06,26,09,29,28.90
2021,06,26,09,30,28.80
2021,06,26,09,31,28.70
2021,06,26,09,32,28.70
2021,06,26,09,33,28.70
2021,06,26,09,34,28.80
2021,06,26,09,35,28.80
2021,06,26,09,36,28.80
2021,06,26,09,37,28.80
2021,06,26,09,38,28.80
2021,06,26,09,39,28.80
2021,06,26,09,40,28.90
2021,06,26,09,41,29.00
2021,06,26,09,42,29.10
2021,06,26,09,43,29.20
2021,06,26,09,44,29.20
2021,06,26,09,45,29.10
2021,06,26,09,46,29.00
2021,06,26,09,47,29.00
2021,06,26,09,48,29.10
2021,06,26,09,49,29.10
2021,06,26,09,50,29.10
2021,06,26,09,51,29.10
2021,06,26,09,52,29.10
2021,06,26,09,53,29.10
2021,06,26,09,54,29.10
2021,06,26,09,55,29.00
2021,06,26,09,56,29.00
2021,06,26,09,57,29.10
2021,06,26,09,58,29.10
2021,06,26,09,59,29.10
2021,06,26,10,00,29.10
2021,06,26,10,01,29.10
2021,06,26,10,02,29.10
2021,06,26,10,03,29.10
2021,06,26,10,04,29.10
2021,06,26,10,05,29.00
2021,06,26,10,06,29.00
2021,06,26,10,07,29.00
2021,06,26,10,08,29.00
2021,06,26,10,09,29.10
2021,06,26,10,10,29.10
2021,06,26,10,11,29.20
2021,06,26,10,12,29.20
2021,06,26,10,13,29.20
2021,06,26,10,14,29.20
2021,06,26,10,15,29.10
2021,06,26,10,16,29.10
2021,06,26,10,17,29.10
2021,06,26,10,18,29.10
2021,06,26,10,19,29.20
2021,06,26,10,20,29.30
2021,06,26,10,21,29.30
2021,06,26,10,22,29.40
2021,06,26,10,23,29.40
2021,06,26,10,24,29.50
2021,06,26,10,25,29.60
2021,06,26,10,26,29.70
2021,06,26,10,27,29.80
2021,06,26,10,28,29.90
2021,06,26,10,29,29.90
2021,06,26,10,30,29.90
2021,06,26,10,31,30.00
2021,06,26,10,32,30.00
2021,06,26,10,33,30.10
2021,06,26,10,34,30.10
2021,06,26,10,35,30.20
2021,06,26,10,36,30.20
2021,06,26,10,37,30.20
2021,06,26,10,38,30.20
2021,06,26,10,39,30.20
2021,06,26,10,40,30.20
2021,06,26,10,41,30.20
2021,06,26,10,42,30.30
2021,06,26,10,43,30.30
2021,06,26,10,44,30.20
2021,06,26,10,45,30.10
2021,06,26,10,46,29.90
2021,06,26,10,47,29.50
2021,06,26,10,48,29.30
2021,06,26,10,49,29.10
2021,06,26,10,50,28.90
2021,06,26,10,51,28.70
2021,06,26,10,52,28.60
2021,06,26,10,53,28.50
2021,06,26,10,54,28.30
2021,06,26,10,55,28.20
2021,06,26,10,56,28.20
2021,06,26,10,57,28.20
2021,06,26,10,58,28.20
2021,06,26,10,59,28.20
2021,06,26,11,00,28.30
2021,06,26,11,01,28.30
2021,06,26,11,02,28.30
2021,06,26,11,03,28.30
2021,06,26,11,04,28.40
2021,06,26,11,05,28.40
2021,06,26,11,06,28.50
2021,06,26,11,07,28.50
2021,06,26,11,08,28.60
2021,06,26,11,09,28.60
2021,06,26,11,10,28.60
2021,06,26,11,11,28.70
2021,06,26,11,12,28.70
2021,06,26,11,13,28.70
2021,06,26,11,14,28.70
2021,06,26,11,15,28.80
2021,06,26,11,16,28.80
2021,06,26,11,17,28.90
2021,06,26,11,18,29.00
2021,06,26,11,19,29.10
2021,06,26,11,20,29.20
2021,06,26,11,21,29.30
2021,06,26,11,22,29.40
2021,06,26,11,23,29.50
2021,06,26,11,24,29.60
2021,06,26,11,25,29.50
2021,06,26,11,26,29.50
2021,06,26,11,27,29.40
2021,06,26,11,28,29.50
2021,06,26,11,29,29.50
2021,06,26,11,30,29.50
2021,06,26,11,31,29.60
2021,06,26,11,32,29.60
2021,06,26,11,33,29.60
2021,06,26,11,34,29.60
2021,06,26,11,35,29.50
2021,06,26,11,36,29.50
2021,06,26,11,37,29.40
2021,06,26,11,38,29.30
2021,06,26,11,39,29.30
2021,06,26,11,40,29.20
2021,06,26,11,41,29.20
2021,06,26,11,42,29.20
2021,06,26,11,43,29.20
2021,06,26,11,44,29.30
2021,06,26,11,45,29.30
2021,06,26,11,46,29.30
2021,06,26,11,47,29.40
2021,06,26,11,48,29.40
2021,06,26,11,49,29.50
2021,06,26,11,50,29.60
2021,06,26,11,51,29.70
2021,06,26,11,52,29.90
2021,06,26,11,53,29.90
2021,06,26,11,54,30.00
2021,06,26,11,55,30.00
2021,06,26,11,56,30.00
2021,06,26,11,57,29.90
2021,06,26,11,58,29.80
2021,06,26,11,59,29.80
2021,06,26,12,00,29.80
2021,06,26,12,01,29.80
2021,06,26,12,02,29.80
2021,06,26,12,03,29.80
2021,06,26,12,04,29.80
2021,06,26,12,05,29.80
2021,06,26,12,06,29.70
2021,06,26,12,07,29.60
2021,06,26,12,08,29.50
2021,06,26,12,09,29.40
2021,06,26,12,10,29.40
2021,06,26,12,11,29.50
2021,06,26,12,12,29.70
2021,06,26,12,13,29.80
2021,06,26,12,14,29.80
2021,06,26,12,15,29.80
2021,06,26,12,16,29.80
2021,06,26,12,17,29.80
2021,06,26,12,18,29.80
2021,06,26,12,19,29.80
2021,06,26,12,20,29.80
2021,06,26,12,21,29.80
2021,06,26,12,22,29.80
2021,06,26,12,23,29.90
2021,06,26,12,24,30.00
2021,06,26,12,25,30.10
2021,06,26,12,26,30.10
2021,06,26,12,27,30.20
2021,06,26,12,28,30.20
2021,06,26,12,29,30.30
2021,06,26,12,30,30.30
2021,06,26,12,31,30.40
2021,06,26,12,32,30.50
2021,06,26,12,33,30.50
2021,06,26,12,34,30.60
2021,06,26,12,35,30.60
2021,06,26,12,36,30.70
2021,06,26,12,37,30.80
2021,06,26,12,38,30.90
2021,06,26,12,39,30.90
2021,06,26,12,40,30.90
2021,06,26,12,41,30.90
2021,06,26,12,42,31.00
2021,06,26,12,43,30.90
2021,06,26,12,44,30.90
2021,06,26,12,45,30.90
2021,06,26,12,46,30.90
2021,06,26,12,47,30.90
2021,06,26,12,48,30.90
2021,06,26,12,49,30.90
2021,06,26,12,50,31.00
2021,06,26,12,51,31.00
2021,06,26,12,52,31.10
2021,06,26,12,53,31.20
2021,06,26,12,54,31.20
2021,06,26,12,55,31.30
2021,06,26,12,56,31.30
2021,06,26,12,57,31.40
2021,06,26,12,58,31.40
2021,06,26,12,59,31.40
2021,06,26,13,00,31.40
2021,06,26,13,01,31.50
2021,06,26,13,02,31.50
2021,06,26,13,03,31.60
2021,06,26,13,04,31.60
2021,06,26,13,05,31.60
2021,06,26,13,06,31.70
2021,06,26,13,07,31.70
2021,06,26,13,08,31.70
2021,06,26,13,09,31.80
2021,06,26,13,10,31.80
2021,06,26,13,11,31.80
2021,06,26,13,12,31.80
2021,06,26,13,13,31.80
2021,06,26,13,14,31.80
2021,06,26,13,15,31.80
2021,06,26,13,16,31.80
2021,06,26,13,17,31.80
2021,06,26,13,18,31.80
2021,06,26,13,19,31.80
2021,06,26,13,20,31.80
2021,06,26,13,21,31.80
2021,06,26,13,22,31.80
2021,06,26,13,23,31.80
2021,06,26,13,24,31.90
2021,06,26,13,25,32.00
2021,06,26,13,26,32.10
2021,06,26,13,27,32.20
2021,06,26,13,28,32.20
2021,06,26,13,29,32.20
2021,06,26,13,30,32.20
2021,06,26,13,31,32.20
2021,06,26,13,32,32.20
2021,06,26,13,33,32.20
2021,06,26,13,34,32.30
2021,06,26,13,35,32.30
2021,06,26,13,36,32.30
2021,06,26,13,37,32.30
2021,06,26,13,38,32.30
2021,06,26,13,39,32.30
2021,06,26,13,40,32.30
2021,06,26,13,41,32.30
2021,06,26,13,42,32.30
2021,06,26,13,43,32.30
2021,06,26,13,44,32.30
2021,06,26,13,45,32.30
2021,06,26,13,46,32.30
2021,06,26,13,47,32.20
2021,06,26,13,48,32.20
2021,06,26,13,49,32.20
2021,06,26,13,50,32.20
2021,06,26,13,51,32.30
2021,06,26,13,52,32.30
2021,06,26,13,53,32.40
2021,06,26,13,54,32.40
2021,06,26,13,55,32.40
2021,06,26,13,56,32.40
2021,06,26,13,57,32.50
2021,06,26,13,58,32.50
2021,06,26,13,59,32.50
2021,06,26,14,00,32.60
2021,06,26,14,01,32.60
2021,06,26,14,02,32.70
2021,06,26,14,03,32.80
2021,06,26,14,04,32.90
2021,06,26,14,05,33.00
2021,06,26,14,06,33.00
2021,06,26,14,07,33.10
2021,06,26,14,08,33.20
2021,06,26,14,09,33.20
2021,06,26,14,10,33.20
2021,06,26,14,11,33.20
2021,06,26,14,12,33.10
2021,06,26,14,13,33.10
2021,06,26,14,14,33.00
2021,06,26,14,15,33.00
2021,06,26,14,16,33.00
2021,06,26,14,17,32.90
2021,06,26,14,18,32.90
2021,06,26,14,19,33.00
2021,06,26,14,20,33.00
2021,06,26,14,21,33.00
2021,06,26,14,22,33.10
2021,06,26,14,23,33.10
2021,06,26,14,24,33.10
2021,06,26,14,25,33.20
2021,06,26,14,26,33.20
2021,06,26,14,27,33.30
2021,06,26,14,28,33.30
2021,06,26,14,29,33.30
2021,06,26,14,30,33.20
2021,06,26,14,31,33.20
2021,06,26,14,32,33.20
2021,06,26,14,33,33.30
2021,06,26,14,34,33.30
2021,06,26,14,35,33.30
2021,06,26,14,36,33.40
2021,06,26,14,37,33.50
2021,06,26,14,38,33.50
2021,06,26,14,39,33.60
2021,06,26,14,40,33.70
2021,06,26,14,41,33.80
2021,06,26,14,42,33.90
2021,06,26,14,43,33.90
2021,06,26,14,44,34.00
2021,06,26,14,45,34.10
2021,06,26,14,46,34.10
2021,06,26,14,47,34.00
2021,06,26,14,48,34.00
2021,06,26,14,49,33.90
2021,06,26,14,50,33.90
2021,06,26,14,51,34.00
2021,06,26,14,52,34.00
2021,06,26,14,53,34.10
2021,06,26,14,54,34.10
2021,06,26,14,55,34.10
2021,06,26,14,56,34.00
2021,06,26,14,57,34.10
2021,06,26,14,58,34.10
2021,06,26,14,59,34.00
2021,06,26,15,00,34.00
2021,06,26,15,01,34.00
2021,06,26,15,02,34.10
2021,06,26,15,03,34.10
2021,06,26,15,04,34.20
2021,06,26,15,05,34.20
2021,06,26,15,06,34.20
2021,06,26,15,07,34.10
2021,06,26,15,08,34.00
2021,06,26,15,09,34.00
2021,06,26,15,10,34.00
2021,06,26,15,11,34.10
2021,06,26,15,12,34.10
2021,06,26,15,13,34.20
2021,06,26,15,14,34.20
2021,06,26,15,15,34.20
2021,06,26,15,16,34.10
2021,06,26,15,17,34.10
2021,06,26,15,18,34.00
2021,06,26,15,19,34.10
2021,06,26,15,20,34.10
2021,06,26,15,21,34.10
2021,06,26,15,22,34.10
2021,06,26,15,23,34.10
2021,06,26,15,24,34.20
2021,06,26,15,25,34.20
2021,06,26,15,26,34.20
2021,06,26,15,27,34.10
2021,06,26,15,28,34.00
2021,06,26,15,29,34.00
2021,06,26,15,30,34.00
2021,06,26,15,31,34.10
2021,06,26,15,32,34.20
2021,06,26,15,33,34.20
2021,06,26,15,34,34.20
2021,06,26,15,35,34.30
2021,06,26,15,36,34.30
2021,06,26,15,37,34.30
2021,06,26,15,38,34.30
2021,06,26,15,39,34.40
2021,06,26,15,40,34.40
2021,06,26,15,41,34.40
2021,06,26,15,42,34.50
2021,06,26,15,43,34.50
2021,06,26,15,44,34.60
2021,06,26,15,45,34.70
2021,06,26,15,46,34.70
2021,06,26,15,47,34.70
2021,06,26,15,48,34.70
2021,06,26,15,49,34.60
2021,06,26,15,50,34.60
2021,06,26,15,51,34.60
2021,06,26,15,52,34.60
2021,06,26,15,53,34.60
2021,06,26,15,54,34.60
2021,06,26,15,55,34.60
2021,06,26,15,56,34.70
2021,06,26,15,57,34.70
2021,06,26,15,58,34.80
2021,06,26,15,59,34.70
2021,06,26,16,00,34.70
2021,06,26,16,01,34.60
2021,06,26,16,02,34.60
2021,06,26,16,03,34.70
2021,06,26,16,04,34.70
2021,06,26,16,05,34.80
2021,06,26,16,06,34.80
2021,06,26,16,07,34.90
2021,06,26,16,08,35.00
2021,06,26,16,09,35.00
2021,06,26,16,10,35.10
2021,06,26,16,11,35.10
2021,06,26,16,12,35.10
2021,06,26,16,13,35.10
2021,06,26,16,14,35.20
2021,06,26,16,15,35.20
2021,06,26,16,16,35.30
2021,06,26,16,17,35.30
2021,06,26,16,18,35.30
2021,06,26,16,19,35.40
2021,06,26,16,20,35.30
2021,06,26,16,21,35.30
2021,06,26,16,22,35.30
2021,06,26,16,23,35.30
2021,06,26,16,24,35.40
2021,06,26,16,25,35.40
2021,06,26,16,26,35.40
2021,06,26,16,27,35.50
2021,06,26,16,28,35.50
2021,06,26,16,29,35.50
2021,06,26,16,30,35.50
2021,06,26,16,31,35.40
2021,06,26,16,32,35.40
2021,06,26,16,33,35.40
2021,06,26,16,34,35.50
2021,06,26,16,35,35.50
2021,06,26,16,36,35.60
2021,06,26,16,37,35.60
2021,06,26,16,38,35.70
2021,06,26,16,39,35.60
2021,06,26,16,40,35.50
2021,06,26,16,41,35.40
2021,06,26,16,42,35.40
2021,06,26,16,43,35.30
2021,06,26,16,44,35.30
2021,06,26,16,45,35.30
2021,06,26,16,46,35.30
2021,06,26,16,47,35.30
2021,06,26,16,48,35.30
2021,06,26,16,49,35.20
2021,06,26,16,50,35.20
2021,06,26,16,51,35.20
2021,06,26,16,52,35.20
2021,06,26,16,53,35.20
2021,06,26,16,54,35.20
2021,06,26,16,55,35.20
2021,06,26,16,56,35.20
2021,06,26,16,57,35.20
2021,06,26,16,58,35.20
2021,06,26,16,59,35.20
2021,06,26,17,00,35.20
2021,06,26,17,01,35.10
2021,06,26,17,02,35.20
2021,06,26,17,03,35.20
2021,06,26,17,04,35.20
2021,06,26,17,05,35.20
2021,06,26,17,06,35.30
2021,06,26,17,07,35.30
2021,06,26,17,08,35.30
2021,06,26,17,09,35.40
2021,06,26,17,10,35.40
2021,06,26,17,11,35.30
2021,06,26,17,12,35.30
2021,06,26,17,13,35.20
2021,06,26,17,14,35.20
2021,06,26,17,15,35.20
2021,06,26,17,16,35.10
2021,06,26,17,17,35.10
2021,06,26,17,18,35.10
2021,06,26,17,19,35.10